Location: Unnamed
(49.2205°N, 28.4120°E)
Time: 16:21:50
(UTC+03:00)

ISS - Pass Details

Date: 24 April 2026
Orbit: 414 x 424 km, 51.6° (Epoch: 18 May)

Event Time Altitude Azimuth Distance (km) Brightness Sun altitude
Exits shadow 04:57:40 14° 244° (WSW) 1,270 -2.0 -9.6°
Maximum altitude 05:00:28 79° 157° (SSE) 433 -3.7 -9.2°
Drops below altitude 10° 05:03:52 10° 72° (ENE) 1,509 0.6 -8.7°
Sets 05:05:58 0° 71° (ENE) 2,378 2.0 -8.5°
